Tracking 35331 objects as of 15-Sep-2026
HD Live streaming from Space Station
objects crossing your sky now

STARLINK-34009

Track STARLINK-34009 now!
10-day predictions
STARLINK-34009 is classified as:


NORAD ID: 63849
Int'l Code: 2025-093P
Launch date: May 7, 2025
Source: United States (US)
Launch site: AIR FORCE EASTERN TEST RANGE (AFETR)
Your satellite tracking list
Your tracking list is empty




NASA's NSSDC Master Catalog

Two Line Element Set (TLE):
1 63849U 25093P   26257.88002084  .00020332  00000-0  74593-3 0  9992
2 63849  42.9992  86.2228 0001751 277.4515  82.6138 15.27597994 76942
Source of the keplerian elements: AFSPC